Weather reports worldwide

Advertisment
Hyeres, France (7667): temperature & dewpoint: 01.08.2020 02:00:00 - 07.08.2020 02:00:00 (CEST)Hyeres, France (7667): temperature 5cm: 01.08.2020 02:00:00 - 07.08.2020 02:00:00 (CEST)Hyeres, France (7667): wind speed & gusts: 01.08.2020 02:00:00 - 07.08.2020 02:00:00 (CEST)Hyeres, France (7667): wind direction: 01.08.2020 02:00:00 - 07.08.2020 02:00:00 (CEST)Hyeres, France (7667): reduced air pressure: 01.08.2020 02:00:00 - 07.08.2020 02:00:00 (CEST)Hyeres, France (7667): visibility: 01.08.2020 02:00:00 - 07.08.2020 02:00:00 (CEST)Hyeres, France (7667): precipitation: 01.08.2020 02:00:00 - 07.08.2020 02:00:00 (CEST)
Date & Time tt [°C] td [°C] tt 5cm [°C] ff [km/h] ff [kn] fx [km/h] fx [kn] dd ppp [hPa] vv [km] rr [mm]
07.08.2020 02:00:00 18,3 13,2 14,2 3 2 8 4 N 1017,9 60 0,0
07.08.2020 01:00:00 18,3 12,5 15,4 2 1 6 3 N 1017,9 60 0,0
07.08.2020 00:00:00 19,3 13,5 15,7 6 3 8 4 N 1017,7 60 0,0
06.08.2020 23:00:00 20,6 14,0 15,5 0 0 4 2 N 1017,3 60 0,0
06.08.2020 22:00:00 22,2 14,3 18,0 3 2 13 7 NNE 1017,3 60 0,0
06.08.2020 21:00:00 23,5 15,5 21,8 8 5 16 9 SSW 1016,6 58 0,0
06.08.2020 20:00:00 24,8 14,9 26,0 12 6 22 12 SW 1016,4 60 0,0
06.08.2020 19:00:00 25,3 16,7 29,5 15 8 29 15 SW 1016,1 60 0,0
06.08.2020 18:00:00 25,3 17,0 30,6 22 12 30 16 SW 1016,0 49 0,0
06.08.2020 17:00:00 26,2 13,0 32,9 18 10 25 14 SW 1016,0 53 0,0
06.08.2020 16:00:00 27,3 14,3 35,0 14 8 26 14 SSW 1016,0 45 0,0
06.08.2020 15:00:00 26,9 12,5 35,8 16 9 25 14 SW 1016,3 51 0,0
06.08.2020 14:00:00 27,2 14,2 37,6 16 8 24 13 SSW 1016,4 56 0,0
06.08.2020 13:00:00 27,8 13,0 38,1 15 8 22 12 SW 1016,4 60 0,0
06.08.2020 12:00:00 29,0 12,4 37,6 9 5 16 9 SSE 1016,2 60 0,0
06.08.2020 11:00:00 28,1 10,3 34,9 9 5 13 7 SE 1016,2 19 0,0
06.08.2020 10:00:00 26,1 9,4 32,3 6 4 13 7 ESE 1016,0 51 0,0
06.08.2020 09:00:00 25,7 9,9 27,4 2 1 11 6 NNW 1015,6 56 0,0
06.08.2020 08:00:00 22,4 10,2 15,8 4 2 13 7 NNW 1015,1 60 0,0
06.08.2020 07:00:00 16,3 10,2 12,6 7 4 12 6 NW 1014,9 42 0,0
06.08.2020 06:00:00 18,0 9,3 13,8 8 4 13 7 NW 1014,7 60 0,0
06.08.2020 05:00:00 20,7 9,9 14,8 10 5 16 9 WNW 1014,4 60 0,0
06.08.2020 04:00:00 18,9 11,2 12,5 11 6 14 8 NW 1014,7 60 0,0
06.08.2020 03:00:00 17,1 13,0 12,5 0 0 7 4 N 1015,0 60 0,0
06.08.2020 02:00:00 16,8 12,9 13,5 6 3 8 5 NNE 1014,9 60 0,0
06.08.2020 01:00:00 17,7 13,2 14,4 7 4 10 5 N 1015,0 60 0,0
06.08.2020 00:00:00 19,1 13,3 15,5 4 2 6 3 NNE 1014,9 60 0,0
05.08.2020 23:00:00 20,6 13,8 17,1 4 2 8 4 NNE 1014,5 60 0,0
05.08.2020 22:00:00 23,0 15,3 20,6 6 3 15 8 W 1014,1 60 0,0
05.08.2020 21:00:00 23,7 15,7 21,2 11 6 16 8 SW 1013,5 60 0,0
05.08.2020 20:00:00 25,1 16,0 26,8 11 6 21 11 SW 1013,1 60 0,0
05.08.2020 19:00:00 26,6 15,6 31,5 12 7 21 11 SSW 1013,0 60 0,0
05.08.2020 18:00:00 27,4 14,8 34,7 10 6 22 12 SSW 1012,8 59 0,0
05.08.2020 17:00:00 27,9 15,2 36,0 12 7 26 14 SSW 1012,9 50 0,0
05.08.2020 16:00:00 28,1 14,7 36,9 15 8 23 12 SSW 1012,9 51 0,0
05.08.2020 15:00:00 28,9 13,2 37,6 13 7 21 11 SSE 1012,8 55 0,0
05.08.2020 14:00:00 28,8 13,9 38,3 14 8 21 11 SSE 1013,0 19 0,0
05.08.2020 13:00:00 28,5 15,4 38,1 11 6 21 11 SSE 1013,1 60 0,0
05.08.2020 12:00:00 27,9 14,9 37,0 13 7 22 12 SSE 1012,8 60 0,0
05.08.2020 11:00:00 28,0 14,3 35,4 12 6 20 11 SE 1012,4 60 0,0
05.08.2020 10:00:00 27,6 13,5 33,5 6 3 16 8 E 1011,8 20 0,0
05.08.2020 09:00:00 26,3 11,2 27,7 6 3 11 6 NW 1011,5 53 0,0
05.08.2020 08:00:00 23,6 11,3 20,4 5 3 13 7 NNW 1010,9 27 0,0
05.08.2020 07:00:00 20,7 10,2 17,8 9 5 16 9 NNW 1010,3 30 0,0
05.08.2020 06:00:00 20,5 9,7 18,0 10 5 15 8 NNW 1009,9 60 0,0
05.08.2020 05:00:00 20,8 9,4 18,8 10 5 20 11 NW 1009,6 60 0,0
05.08.2020 04:00:00 21,3 9,5 19,3 14 8 21 11 NNW 1009,6 60 0,0
05.08.2020 03:00:00 22,0 9,2 19,4 13 7 22 12 NNW 1009,4 60 0,0
05.08.2020 02:00:00 22,9 8,6 19,9 10 5 16 9 N 1009,3 60 0,0
05.08.2020 01:00:00 23,6 8,1 17,7 10 6 17 9 N 1009,1 60 0,0
05.08.2020 00:00:00 22,7 8,8 15,8 9 5 12 7 N 1009,1 60 0,0
04.08.2020 23:00:00 24,1 9,3 16,7 0 0 7 4 N 1008,6 60 0,0
04.08.2020 22:00:00 24,7 10,2 17,8 0 0 10 6 N 1008,2 50 0,0
04.08.2020 21:00:00 27,2 8,6 24,3 6 4 21 12 NW 1007,5 60 0,0
04.08.2020 20:00:00 29,7 9,2 29,5 17 9 29 16 W 1006,6 60 0,0
04.08.2020 19:00:00 27,2 12,4 31,4 17 9 38 21 SW 1006,2 60 0,0
04.08.2020 18:00:00 28,0 10,7 32,2 32 18 44 24 WSW 1006,3 46 0,0
04.08.2020 17:00:00 29,9 9,4 33,8 26 14 47 26 WSW 1006,2 20 0,0
04.08.2020 16:00:00 27,5 11,9 33,7 31 17 46 25 SW 1006,5 44 0,0
04.08.2020 15:00:00 28,0 10,2 33,9 36 19 53 29 SW 1006,8 48 0,0
04.08.2020 14:00:00 28,6 9,3 36,0 16 8 40 21 W 1006,8 20 0,0
04.08.2020 13:00:00 29,5 6,8 34,6 18 10 40 22 NNW 1007,0 19 0,0
04.08.2020 12:00:00 27,7 6,4 32,7 19 11 42 23 NNW 1007,2 16 0,0
04.08.2020 11:00:00 26,5 7,0 30,1 24 13 49 26 NNW 1007,2 14 0,0
04.08.2020 10:00:00 24,8 7,0 26,0 27 14 55 30 NNW 1007,4 9 0,0
04.08.2020 09:00:00 23,1 7,2 23,3 33 18 68 37 NW 1006,7 6 0,0
04.08.2020 08:00:00 21,6 7,0 20,1 32 18 66 36 NW 1006,1 10 0,0
04.08.2020 07:00:00 21,0 6,1 19,8 41 22 77 42 NW 1005,5 18 0,0
04.08.2020 06:00:00 21,0 5,7 20,0 45 24 75 40 WNW 1005,4 20 0,0
04.08.2020 05:00:00 21,2 5,9 20,0 40 22 65 35 NW 1005,9 60 0,0
04.08.2020 04:00:00 21,8 5,2 20,6 32 17 60 33 NW 1006,4 18 0,0
04.08.2020 03:00:00 22,3 6,1 21,2 31 17 66 35 NW 1007,0 60 0,0
04.08.2020 02:00:00 23,2 5,1 21,6 45 24 73 40 WNW 1007,1 53 0,0
04.08.2020 01:00:00 22,9 6,6 21,7 44 24 80 43 WNW 1006,9 60 0,0
04.08.2020 00:00:00 23,6 6,4 22,4 40 21 76 41 NW 1006,6 19 0,0
03.08.2020 23:00:00 24,1 7,3 22,9 37 20 69 37 WNW 1006,6 20 0,0
03.08.2020 22:00:00 25,2 7,3 23,9 31 17 61 33 NW 1006,2 60 0,0
03.08.2020 21:00:00 26,3 6,8 25,1 34 18 68 37 WNW 1005,3 60 0,0
03.08.2020 20:00:00 28,0 6,1 28,1 34 18 68 37 WNW 1004,8 33 0,0
03.08.2020 19:00:00 29,2 5,9 31,0 32 18 74 40 NW 1004,6 20 0,0
03.08.2020 18:00:00 29,9 8,3 32,7 42 23 69 37 WNW 1004,4 9 0,0
03.08.2020 17:00:00 31,3 8,3 34,6 36 19 67 36 WNW 1004,4 8 0,0
03.08.2020 16:00:00 29,4 13,2 34,7 32 17 72 39 W 1005,0 17 0,0
03.08.2020 15:00:00 30,9 8,0 35,4 38 20 67 36 WNW 1005,6 3,2 0,0
03.08.2020 14:00:00 29,8 13,5 33,6 42 23 57 31 W 1006,5 14 0,0
03.08.2020 13:00:00 28,2 14,8 28,4 31 17 60 32 W 1006,9 20 0,0
03.08.2020 12:00:00 26,2 14,0 28,3 26 14 39 21 W 1007,4 54 0,0
03.08.2020 11:00:00 28,0 13,9 27,8 26 14 35 19 W 1007,4 60 0,0
03.08.2020 10:00:00 25,9 14,4 26,2 16 9 34 19 W 1007,7 20 0,0
03.08.2020 09:00:00 25,2 14,3 24,4 20 11 32 17 W 1007,9 18 0,0
03.08.2020 08:00:00 24,8 14,9 23,4 12 6 19 10 W 1008,0 18 0,0
03.08.2020 07:00:00 24,7 14,8 23,1 8 5 23 12 WNW 1008,1 60 0,0
03.08.2020 06:00:00 24,9 14,7 23,2 19 11 28 15 WNW 1007,4 40 0,0
03.08.2020 05:00:00 24,8 15,1 22,1 14 7 21 11 WNW 1007,2 60 0,0
03.08.2020 04:00:00 24,3 14,4 20,7 2 1 9 5 NW 1007,5 60 0,0
03.08.2020 03:00:00 25,9 14,0 22,9 6 3 24 13 WNW 1007,9 60 0,0
03.08.2020 02:00:00 27,3 14,3 25,1 16 8 29 16 WNW 1007,8 60 0,0
03.08.2020 01:00:00 27,9 14,2 25,9 21 11 29 16 W 1007,9 60 0,0
03.08.2020 00:00:00 28,4 14,6 26,7 23 12 50 27 W 1007,7 60 0,0
02.08.2020 23:00:00 27,8 16,4 25,5 28 15 41 22 WSW 1007,7 60 0,0
02.08.2020 22:00:00 27,0 19,4 25,9 23 13 31 17 WSW 1007,8 56 0,0
02.08.2020 21:00:00 28,3 18,1 26,9 16 8 34 19 W 1007,8 60 0,0
02.08.2020 20:00:00 30,3 18,1 29,7 18 10 44 24 WNW 1007,3 58 0,0
02.08.2020 19:00:00 31,4 18,4 33,7 28 15 51 28 W 1007,3 20 0,0
02.08.2020 18:00:00 31,5 18,5 35,2 39 21 52 28 WSW 1007,6 27 0,0
02.08.2020 17:00:00 32,6 19,1 35,5 38 20 58 31 W 1007,5 15 0,0
02.08.2020 16:00:00 33,1 19,2 38,7 32 18 49 27 WSW 1008,0 19 0,0
02.08.2020 15:00:00 31,8 20,7 39,5 29 16 41 22 SW 1009,0 20 0,0
02.08.2020 14:00:00 32,8 19,7 41,8 19 10 29 16 SW 1009,7 48 0,0
02.08.2020 13:00:00 32,5 17,5 41,0 15 8 27 15 SSW 1010,1 51 0,0
02.08.2020 12:00:00 29,9 20,2 37,2 19 10 29 16 SSW 1010,6 20 0,0
02.08.2020 11:00:00 29,2 22,2 36,7 14 8 21 11 SSW 1010,4 20 0,0
02.08.2020 10:00:00 29,0 23,0 34,5 9 5 14 8 SSW 1010,4 20 0,0
02.08.2020 09:00:00 28,3 19,8 30,6 8 4 11 6 WNW 1010,5 60 0,0
02.08.2020 08:00:00 26,1 20,9 22,2 3 2 6 4 WNW 1010,5 47 0,0
02.08.2020 07:00:00 23,8 17,3 18,1 3 2 18 10 NW 1010,3 58 0,0
02.08.2020 06:00:00 21,4 17,6 18,3 3 2 8 4 NNW 1010,1 35 0,0
02.08.2020 05:00:00 22,8 19,6 20,5 5 3 9 5 N 1009,8 20 0,0
02.08.2020 04:00:00 25,6 22,9 24,1 5 3 18 10 ENE 1010,3 34 0,0
02.08.2020 03:00:00 26,3 17,9 22,7 11 6 15 8 NNE 1010,5 59 0,0
02.08.2020 02:00:00 27,9 18,6 25,9 5 3 20 11 SSW 1010,5 60 0,0
02.08.2020 01:00:00 29,3 17,5 23,3 16 9 39 21 WSW 1011,4 60 0,0
02.08.2020 00:00:00 31,1 10,4 27,4 13 7 31 17 WNW 1010,3 60 0,0
01.08.2020 23:00:00 31,8 10,5 30,1 21 11 53 28 NNW 1010,8 60 0,0
01.08.2020 22:00:00 32,8 11,9 29,0 26 14 46 25 N 1011,5 60 0,0
01.08.2020 21:00:00 31,5 18,8 29,9 14 7 39 21 NNW 1011,4 18 0,0
01.08.2020 20:00:00 30,7 18,8 30,7 19 10 34 18 WSW 1010,3 35 0,0
01.08.2020 19:00:00 28,7 23,8 33,1 20 11 38 21 SSW 1010,5 40 0,0
01.08.2020 18:00:00 29,1 24,0 35,1 23 12 39 21 SW 1011,3 37 0,0
01.08.2020 17:00:00 29,2 23,4 36,1 18 10 29 16 SW 1011,5 20 0,0
01.08.2020 16:00:00 30,3 22,7 38,3 18 10 27 15 SSW 1011,9 42 0,0
01.08.2020 15:00:00 30,4 22,6 40,4 14 8 25 13 SSW 1012,4 47 0,0
01.08.2020 14:00:00 30,7 20,6 39,4 14 7 22 12 SSW 1012,9 46 0,0
01.08.2020 13:00:00 30,1 20,9 38,4 14 8 21 11 ESE 1013,3 40 0,0
01.08.2020 12:00:00 29,4 20,5 37,1 13 7 21 11 ESE 1013,6 37 0,0
01.08.2020 11:00:00 29,1 20,0 35,7 14 7 18 10 ESE 1013,7 40 0,0
01.08.2020 10:00:00 28,1 17,9 34,6 9 5 13 7 E 1013,7 20 0,0
01.08.2020 09:00:00 28,2 17,1 27,7 4 2 8 4 NNW 1013,9 38 0,0
01.08.2020 08:00:00 23,0 15,6 18,6 3 2 8 4 NE 1013,8 54 0,0
01.08.2020 07:00:00 20,1 14,0 15,4 5 3 11 6 NE 1013,8 60 0,0
01.08.2020 06:00:00 20,0 12,2 15,1 4 2 16 9 NNE 1013,6 60 0,0
01.08.2020 05:00:00 19,2 13,1 15,5 3 2 9 5 N 1013,5 60 0,0
01.08.2020 04:00:00 19,5 13,4 16,0 3 1 10 5 ENE 1013,7 60 0,0
01.08.2020 03:00:00 19,6 14,6 16,5 0 0 5 3 N 1013,9 57 0,0
01.08.2020 02:00:00 21,4 15,9 17,1 3 2 6 4 E 1014,5 58 0,0

tt = temperature
td = dewpoint
tt 5cm = temperature 5cm
ff = wind speed
fx = gusts
dd = wind direction
ppp = reduced air pressure
vv = visibility
rr = precipitation

Next stations